The Dalles, WA

12:55 AM PDT on March 30, 2017 (GMT -0700)
Columbia Gorge Regional-The Dalles

Weather History for KDLS - November, 2011

Change the Weather History Date:

Tuesday, November 1, 2011

  Actual Average Record
Temperature  
Mean Temperature 45 °F -  
Max Temperature 57 °F 57 °F 67 °F (1949)
Min Temperature 33 °F 38 °F 16 °F (2002)
Degree Days  
Heating Degree Days 20    
Moisture  
Dew Point 30 °F    
Average Humidity 58    
Maximum Humidity 79    
Minimum Humidity 31    
Precipitation  
Precipitation 0.00 in - - ()
Sea Level Pressure  
Sea Level Pressure 30.50 in    
Wind  
Wind Speed 6 mph (ENE)    
Max Wind Speed 12 mph    
Max Gust Speed -    
Visibility 10 miles    
Events      
Averages and records for this station are not official NWS values.
T = Trace of Precipitation, MM = Missing Value Source: NWS Daily Summary

Daily Weather History Graph

Daily Weather History Graph

Search for Another Location

Airport or City:

Trip Planner

Search our weather history database for the weather conditions in past years. The results will help you decide how hot, cold, wet, or windy it might be!

Date:

Astronomy

Nov. 01, 2011 Rise Set
Actual Time 7:44 AM PDT 5:51 PM PDT
Civil Twilight 7:13 AM PDT 6:22 PM PDT
Nautical Twilight 6:38 AM PDT 6:57 PM PDT
Astronomical Twilight 6:03 AM PDT 7:32 PM PDT
Moon 1:36 PM PDT (11/1) 11:38 PM PDT (11/1)
Length of Visible Light 11h 09m
Length of Day
10h 07m
Waxing Crescent, 41% of the Moon is Illuminated
Nov 1
Waxing Crescent
Nov 2
First Quarter
Nov 10
Full
Nov 18
Last Quarter
Nov 24
New

Hourly Weather History & Observations

Time (PDT) Temp. Windchill Dew Point Humidity Pressure Visibility Wind Dir Wind Speed Gust Speed Precip Events Conditions
12:53 AM 46.9 °F - 35.1 °F 63% 30.41 in 10.0 mi NW 9.2 mph - N/A   Clear
1:53 AM 46.0 °F 42.5 °F 35.1 °F 66% 30.42 in 10.0 mi NW 6.9 mph - N/A   Clear
2:53 AM 45.0 °F 39.3 °F 35.1 °F 68% 30.43 in 10.0 mi NW 11.5 mph - N/A   Clear
3:53 AM 42.1 °F - 34.0 °F 73% 30.44 in 10.0 mi Calm Calm - N/A   Clear
4:53 AM 42.1 °F 37.7 °F 35.1 °F 76% 30.46 in 10.0 mi WNW 6.9 mph - N/A   Clear
5:53 AM 37.0 °F 32.4 °F 30.9 °F 79% 30.48 in 10.0 mi South 5.8 mph - N/A   Clear
6:53 AM 34.0 °F 28.0 °F 28.0 °F 79% 30.50 in 10.0 mi ESE 6.9 mph - N/A   Clear
7:53 AM 33.1 °F 26.9 °F 26.1 °F 75% 30.53 in 10.0 mi ESE 6.9 mph - N/A   Clear
8:53 AM 36.0 °F 32.1 °F 27.0 °F 70% 30.55 in 10.0 mi ESE 4.6 mph - N/A   Clear
9:53 AM 42.1 °F - 30.0 °F 62% 30.57 in 10.0 mi Calm Calm - N/A   Clear
10:53 AM 46.0 °F 44.8 °F 34.0 °F 63% 30.57 in 10.0 mi Variable 3.5 mph - N/A   Clear
11:53 AM 48.9 °F - 35.1 °F 59% 30.57 in 10.0 mi Calm Calm - N/A   Clear
12:53 PM 53.1 °F - 30.9 °F 43% 30.55 in 10.0 mi East 3.5 mph - N/A   Clear
1:53 PM 55.0 °F - 28.9 °F 37% 30.54 in 10.0 mi Calm Calm - N/A   Clear
2:53 PM 57.0 °F - 28.0 °F 33% 30.51 in 10.0 mi ENE 6.9 mph - N/A   Clear
3:53 PM 57.9 °F - 27.0 °F 31% 30.50 in 10.0 mi Variable 5.8 mph - N/A   Clear
4:53 PM 55.9 °F - 27.0 °F 33% 30.50 in 10.0 mi ENE 6.9 mph - N/A   Clear
5:53 PM 51.1 °F - 28.9 °F 43% 30.49 in 10.0 mi ENE 6.9 mph - N/A   Clear
6:53 PM 44.1 °F - 28.0 °F 53% 30.49 in 10.0 mi Calm Calm - N/A   Clear
7:53 PM 44.1 °F - 30.0 °F 58% 30.49 in 10.0 mi Calm Calm - N/A   Clear
8:53 PM 41.0 °F - 28.0 °F 60% 30.48 in 10.0 mi Calm Calm - N/A   Clear
10:53 PM 39.0 °F 36.8 °F 27.0 °F 62% 30.49 in 10.0 mi West 3.5 mph - N/A   Clear